Hourly Data Report for July 20, 2021

RANKIN INLET A
NUNAVUT
Current Station Operator: NAVCAN

62°48'38.000" N
92°06'53.000" W
32.30 m
2303405
71083
YRT

Download Data

Hourly Data (July 2021)
Hourly Data Report for July 20, 2021
TIME
LST
Temp Definition
°C
Dew Point Definition
°C
Rel Hum Definition
%
Precip. Amount Definition
mm

Wind Dir Definition
10's deg

Wind Spd Definition
km/h
Visibility Definition
km
Stn Press Definition
kPa
Hmdx Definition


Wind Chill Definition


Weather Definition


00:00 13.8 10.2 78   29 20 24.1 101.04     Mainly Clear
01:00 13.1 9.8 80   27 16 24.1 101.02     LegendNANA
02:00 12.3 9.6 83   27 18 24.1 101.00     LegendNANA
03:00 12.0 9.1 82   27 16 24.1 100.97     Mainly Clear
04:00 12.2 8.8 80   28 17 24.1 100.94     LegendNANA
05:00 13.1 9.4 78   28 16 24.1 100.95     LegendNANA
06:00 14.7 10.5 76   30 10 24.1 100.96     Mostly Cloudy
07:00 16.2 10.6 69   32 18 24.1 100.96     LegendNANA
08:00 17.1 10.7 66   32 16 24.1 100.96     LegendNANA
09:00 18.9 11.4 61   33 15 24.1 100.97     Mainly Clear
10:00 20.3 11.4 56   33 13 24.1 100.94     LegendNANA
11:00 21.1 12.0 56   34 19 24.1 100.93     LegendNANA
12:00 21.4 12.4 56   33 24 24.1 100.94     Mainly Clear
13:00 21.3 11.7 54   33 20 24.1 100.95     LegendNANA
14:00 21.5 11.3 52   31 20 24.1 100.93     LegendNANA
15:00 20.4 11.2 55   34 26 24.1 100.90     Mostly Cloudy
16:00 19.0 10.8 59   35 34 24.1 100.89     LegendNANA
17:00 18.9 9.4 53   34 32 24.1 100.90     LegendNANA
18:00 17.5 9.3 58   34 25 24.1 100.94     Mostly Cloudy
19:00 16.7 8.9 60   33 21 24.1 100.95     LegendNANA
20:00 16.3 8.7 61   34 27 24.1 100.96     LegendNANA
21:00 15.4 9.4 67   34 22 24.1 100.99     Mostly Cloudy
22:00 14.1 9.8 75   36 15 24.1 101.00     LegendNANA
23:00 13.9 9.7 76   35 18 24.1 101.01     LegendNANA

Notes on Data Quality.

Legend

  • E = Estimated
  • M = Missing
  • NA = Not Available*
  • [empty] = Indicates an unobserved value
Date modified: